Theta_e
295 294 293 292 291 291 290 290 290 290 290 290 290 289 289 289 289 292 292 292 292 292
293 293 292 291 291 290 290 290 290 290 289 289 289 289 289 288 288 290 292 292 292 292
292 291 291 290 289 289 290 290 289 289 289 288 288 288 288 287 288 288 291 291 291 291
291 291 291 290 289 289 289 289 289 288 287 287 287 287 286 286 287 288 290 291 290 290
291 290 290 289 289 289 288 288 288 287 287 287 286 286 286 286 286 286 288 289 289 289
290 290 289 289 289 289 288 287 287 287 286 285 285 285 286 286 286 288 289 289 289 289
290 290 289 289 288 288 288 287 286 286 285 285 285 285 285 286 287 288 288 289 289 289
290 290 289 288 288 288 288 287 286 285 285 284 285 286 285 286 286 287 288 288 289 289
290 290 288 288 289 288 287 286 285 285 284 284 286 289 290 289 286 287 287 286 287 288
290 289 289 288 288 286 286 285 284 283 284 283 284 288 288 288 286 287 287 287 286 286
290 288 288 287 286 285 284 284 283 283 284 283 284 288 288 288 286 286 286 286 286 285
288 287 286 286 285 284 284 283 283 283 282 283 283 287 287 287 285 285 284 284 285 285
287 287 286 286 284 283 284 283 283 283 283 282 283 286 288 286 283 284 284 285 285 285
287 287 286 284 282 284 282 283 282 282 281 282 283 283 287 288 283 283 284 284 284 284
Wind_Speed
11 8 7 6 7 5 4 5 5 5 5 5 5 4 4 1 2 4 2 2 3 3
8 9 9 8 6 4 5 4 5 5 5 5 5 5 3 2 2 1 0 2 2 3
9 8 8 7 7 7 6 6 6 5 5 5 4 4 4 2 1 1 1 1 2 3
8 9 8 8 7 7 6 6 6 6 5 5 4 3 3 2 0 1 1 2 3 4
9 8 8 7 7 7 7 6 6 6 5 4 4 4 4 4 2 1 2 3 3 5
9 8 8 8 7 7 7 6 6 5 5 5 5 5 4 3 1 2 2 3 4 5
9 9 8 8 7 7 6 6 6 5 5 5 4 4 4 4 2 2 3 4 5 5
7 8 8 8 7 6 6 6 6 6 5 4 3 3 4 3 1 2 3 4 5 5
9 9 9 8 8 7 6 6 6 5 5 5 2 2 5 2 1 2 3 4 4 4
10 10 8 7 8 7 7 6 5 5 5 5 5 4 3 2 1 2 3 4 4 5
11 10 9 9 8 7 5 6 5 5 5 5 4 6 4 2 2 2 4 4 4 5
10 10 9 9 9 6 6 4 4 4 5 5 3 8 5 4 1 3 4 4 5 4
10 11 11 9 9 4 4 5 5 5 5 4 5 7 8 5 2 2 3 4 5 7
11 12 11 8 4 7 5 5 4 4 2 4 5 6 8 8 2 2 3 3 3 2
Wind_Direction
138 140 139 144 149 146 149 148 152 138 129 125 134 143 150 155 181 167 215 268 251 239
128 136 143 136 130 136 133 136 138 129 119 108 103 102 111 110 82 36 127 271 276 269
138 127 128 129 136 138 134 126 131 126 122 114 106 102 95 76 24 34 313 283 276 271
132 131 132 136 139 138 130 137 135 134 128 123 120 121 113 114 245 29 313 289 278 284
134 137 137 139 140 137 139 137 137 133 131 145 161 161 164 159 160 201 302 286 279 287
147 148 148 143 141 141 139 138 131 134 155 170 171 167 177 172 164 341 285 286 292 294
162 158 151 146 146 143 144 140 148 164 164 163 166 173 170 162 178 327 277 274 276 281
157 148 144 146 148 139 144 154 159 154 151 159 169 175 183 189 201 329 300 283 281 279
159 157 157 153 141 146 157 157 151 150 153 149 156 204 136 149 127 291 282 289 279 282
163 164 153 151 149 160 169 155 155 153 155 162 172 166 176 139 229 272 288 287 292 298
168 161 157 160 165 164 160 167 156 168 177 182 178 193 193 182 211 301 285 283 284 287
163 157 166 174 176 167 152 159 169 172 186 194 194 227 200 210 194 301 294 295 282 282
172 165 175 182 175 145 157 167 164 179 196 188 221 225 222 213 184 277 296 287 274 286
172 175 174 159 163 155 156 153 167 192 198 226 223 232 224 224 215 202 302 306 279 249